Regional Weather Roundup
Issued by NWS Charleston, SC

Home | Current Version | Previous Version | Text Only | Print | Product List | Glossary On
Versions: 1 2 3 4 5 6 7 8 9 10 11 12 13 14 15 16 17 18 19 20 21 22 23 24 25 26 27 28 29 30 31 32 33 34 35 36 37 38 39 40 41 42 43 44 45 46 47 48 49 50
000
ASUS42 KCHS 241827
RWRCHS

REGIONAL WEATHER ROUNDUP
NATIONAL WEATHER SERVICE CHARLESTON SC
200 PM EDT SAT JUN 24 2017

NOTE: "FAIR" INDICATES FEW OR NO CLOUDS BELOW 12,000 FEET WITH NO
SIGNIFICANT WEATHER AND/OR OBSTRUCTIONS TO VISIBILITY.

NOT ALL STATIONS ARE QUALITY CONTROLLED. USE DATA WITH CAUTION...
ESPECIALLY DEWPOINT OBSERVATIONS.

SCZ027-030-031-034>040-042>050-241900-
...SOUTHEAST SOUTH CAROLINA...

CITY           SKY/WX    TMP DP  RH WIND       PRES   REMARKS
N CHARLESTON   MOSUNNY   92  68  45 W12G18    30.00F HX  96
6HR MIN TEMP:  81; 6HR MAX TEMP:  92;

WATERFRONT PRK   N/A     87  76  69 SW9       30.00S HX  97
JOHNS ISLAND   CLOUDY    90  79  70 S13G18    30.01F HX 105
PINOPOLIS        N/A     88  73  62 SW9       29.93F HX  96
MONCKS CORNER  FAIR      90  68  48 W6        29.99F HX  93
SUMMERVILLE    FAIR      90  72  55 S7        30.00F HX  96
BEAUFORT MCAS  MOSUNNY   92  72  51 SW8G18    30.02F HX  99
6HR MIN TEMP:  81; 6HR MAX TEMP:  92;

BEAUFORT ARPT  FAIR      91  72  52 W12G21    30.01F HX  98
HILTON HEAD IS NOT AVBL
WALTERBORO     PTCLDY    90  72  55 S10       30.00F HX  96
ALLENDALE      MOCLDY    90  75  62 VRB5      29.98F HX 100

...SOUTHERN MIDLANDS AND PEE DEE...

CITY           SKY/WX    TMP DP  RH WIND       PRES   REMARKS
GEORGETOWN     FAIR      90  70  51 SW14      30.00F HX  95
KINGSTREE      MOCLDY    88  72  58 S9G17     29.98S HX  94
ORANGEBURG     LGT RAIN  90  73  57 SW12      29.98F HX  98
6HR MIN TEMP:  78; 6HR MAX TEMP:  91; 6HR PCP: TRACE;

BARNWELL       CLOUDY    91  75  59 SW13G21   29.98F HX 102
AIKEN          FAIR      82  77  83 SW8G16    30.03S HX  91
MANNING        MOCLDY    88  77  70 SW13G25   29.97F HX 100
COLUMBIA       PTSUNNY   91  73  55 W10       29.95F HX  99
6HR MIN TEMP:  80; 6HR MAX TEMP:  91;

SUMTER         MOSUNNY   90  73  56 SW14G21   29.95F HX  98
6HR MIN TEMP:  80; 6HR MAX TEMP:  91;

FLORENCE       MOSUNNY   89  74  60 SW16      29.96F HX  98
6HR MIN TEMP:  80; 6HR MAX TEMP:  90;

MYRTLE BEACH   NOT AVBL
N MYRTLE BEACH MOSUNNY   87  77  72 S18G24    29.97F HX  99
6HR MIN TEMP:  82; 6HR MAX TEMP:  90;


$$

GAZ063-065-086>088-099>101-113>116-118-119-134>141-150-241900-
...SOUTHEAST GEORGIA...

CITY           SKY/WX    TMP DP  RH WIND       PRES   REMARKS
SAVANNAH ARPT  MOSUNNY   93  70  46 W13       30.03S HX  99
6HR MIN TEMP:  79; 6HR MAX TEMP:  93;

HUNTER AAF     MOSUNNY   93  70  46 W12       30.00S HX  98
6HR MIN TEMP:  80; 6HR MAX TEMP:  93;

FORT STEWART   PTSUNNY   91  70  49 W8        30.01S HX  97
6HR MIN TEMP:  78; 6HR MAX TEMP:  91;

STATESBORO     MOSUNNY   91  72  52 SW8       30.02F HX  98
SYLVANIA       PTCLDY    91  75  60 W5        30.01F HX 102
CLAXTON        FAIR      89  70  54 SW8       30.02F HX  94

...CSRA...CENTRAL AND FAR SOUTHEAST GEORGIA...

CITY           SKY/WX    TMP DP  RH WIND       PRES   REMARKS
THOMSON        HVY RAIN  75  73  94 N12       30.08R FOG
AUGUSTA-BUSH   PTSUNNY   93  74  53 SW20G26   29.97F HX 103
6HR MIN TEMP:  80; 6HR MAX TEMP:  93; 6HR PCP: TRACE;

AUGUSTA-DANIEL MOSUNNY   90  70  51 W9G18     30.00F HX  95
SWAINSBORO     MOCLDY    88  72  58 SW7       30.02F HX  94
VIDALIA        PTSUNNY   90  72  55 SW9       30.02F HX  96
EASTMAN        MOCLDY    91  59  33 SW12G18   30.05S HX  90
HAZLEHURST       N/A     91  73  56 SW8       30.02F HX  98
ALMA           MOSUNNY   90  71  53 W14G20    30.04F HX  96
6HR MIN TEMP:  75; 6HR MAX TEMP:  91;

WAYCROSS       PTSUNNY   93  76  57 SW10      30.04F HX 105
JESUP          FAIR      91  64  40 W7        30.03F HX  93
BAXLEY         FAIR      91  73  55 W8        30.03F HX 100
BRUNSWICK      MOSUNNY   91  75  59 SW9G20    30.04F HX 102
SAINT SIMONS   MOSUNNY   92  72  51 SW13      30.04F HX  99
6HR MIN TEMP:  79; 6HR MAX TEMP:  93;


$$

SCZ027-028-034-036>038-045-046-048>050-GAZ119-141-241900-
...LAKE AND SUPPLEMENTAL COASTAL OBSERVATIONS...

STATION/POSITION TIME  TEMP    WIND        PRES    WAVE   SWELL
                       AIR SEA DIR/SP/G            HT/PER HT/PER/DIR
                 (UTC) (F)     (DEG/KT/KT) (MB)    (FT/S) (FT/S/D)
WINYAH BAY       1745   89     250/  9     1015.0F
LAKE MURRAY      1820   86     270/ 12/ 15 1013.5F
ACE BASIN NERRS  1745   90     230/  3     1017.0S
FORT PULASKI     1800   87 84  200/  8/ 12 1016.9
SAPELO ISLAND    1800   91     220/ 10     1017.0

$$

ANZ835-935-AMZ111-154-330-350-352-354-370-450-454-472-241900-
...C-MAN AND BUOY OBSERVATIONS...

STATION/POSITION TIME  TEMP    WIND        PRES    WAVE   SWELL
                       AIR SEA DIR/SP/G            HT/PER HT/PER/DIR
                 (UTC) (F)     (DEG/KT/KT) (MB)    (FT/S) (FT/S/D)
BUOY 41004       1810   81 81  210/ 16/ 17 1016.6
BUOY 41008       1750   81 83  180/ 12/ 14 1017.2F   2/ 5   2/ 90/10
FOLLY BEACH CMAN 1800   84     190/ 15/ 16 1017.2F
CAPERS NEARSHORE 1808   87 83  210/ 17/ 21 1016.1F
FRIPP NEARSHORE  1808   83 84  200/ 14/ 17 1016.5F


STATION/POSITION TIME  TEMP    WIND        PRES    WAVE   SWELL
                       AIR SEA DIR/SP/G            HT/PER HT/PER/DIR
                 (UTC) (F)     (DEG/KT/KT) (MB)    (FT/S) (FT/S/D)
5E ST. MARYS GA  1800      82                N/A     2/ 9
FRYING PAN BUOY  1810   81 81  220/ 17/ 21 1016.0
BUOY 41025       1750   80 80  230/ 19/ 23 1014.2F   8/ 8   3/230/ 8
CAPE LOOKOUT NC  1800   83     220/ 16/ 21 1014.4F
BUOY 41002       1750   81 81  210/ 14/ 16 1019.8S   4/ 5   2/120/ 9
BUOY 41010       1810   81 83  190/ 10/ 14 1019.8
ST AUGUSTINE FL  1800   79 79  140/ 11/ 12 1018.2F


$$




USA.gov is the U.S. government's official web portal to all federal, state and local government web resources and services.